Fernwood, MS

4:42 PM CST on December 02, 2016 (GMT -0600)
McComb-Pike County-Lewis

Weather History for KMCB - March, 2013

Change the Weather History Date:

Tuesday, March 12, 2013

  Actual Average Record
Temperature  
Mean Temperature 49 °F -  
Max Temperature 64 °F 70 °F 87 °F (1955)
Min Temperature 34 °F 49 °F 26 °F (1998)
Degree Days  
Heating Degree Days 16    
Moisture  
Dew Point 35 °F    
Average Humidity 64    
Maximum Humidity 97    
Minimum Humidity 29    
Precipitation  
Precipitation 0.00 in - - ()
Sea Level Pressure  
Sea Level Pressure 30.13 in    
Wind  
Wind Speed 3 mph (NNW)    
Max Wind Speed 12 mph    
Max Gust Speed 16 mph    
Visibility 10 miles    
Events      
Averages and records for this station are not official NWS values.
T = Trace of Precipitation, MM = Missing Value Source: NWS Daily Summary

Daily Weather History Graph

Daily Weather History Graph

Search for Another Location

Airport or City:

Trip Planner

Search our weather history database for the weather conditions in past years. The results will help you decide how hot, cold, wet, or windy it might be!

Date:

Astronomy

Mar. 12, 2013 Rise Set
Actual Time 7:15 AM CDT 7:08 PM CDT
Civil Twilight 6:51 AM CDT 7:32 PM CDT
Nautical Twilight 6:23 AM CDT 8:00 PM CDT
Astronomical Twilight 5:54 AM CDT 8:28 PM CDT
Moon 7:27 AM CDT (3/12) 8:15 PM CDT (3/12)
Length of Visible Light 12h 41m
Length of Day
11h 52m
New Moon, 1% of the Moon is Illuminated
Mar 12
New Moon
Mar 19
First Quarter
Mar 27
Full
Apr 2
Last Quarter
Apr 10
New

Hourly Weather History & Observations

Time (CDT) Temp. Windchill Dew Point Humidity Pressure Visibility Wind Dir Wind Speed Gust Speed Precip Events Conditions
12:53 AM 39.0 °F - 36.0 °F 89% 30.04 in 10.0 mi Calm Calm - N/A   Clear
1:53 AM 36.0 °F 32.1 °F 35.1 °F 97% 30.06 in 10.0 mi WNW 4.6 mph - N/A   Clear
2:53 AM 39.0 °F 36.8 °F 36.0 °F 89% 30.05 in 10.0 mi NNW 3.5 mph - N/A   Clear
3:53 AM 37.9 °F - 34.0 °F 86% 30.05 in 10.0 mi Calm Calm - N/A   Clear
4:53 AM 35.1 °F - 33.1 °F 92% 30.06 in 10.0 mi Calm Calm - N/A   Clear
5:53 AM 34.0 °F - 33.1 °F 96% 30.07 in 9.0 mi Calm Calm - N/A   Clear
6:53 AM 34.0 °F - 32.0 °F 92% 30.10 in 10.0 mi Calm Calm - N/A   Clear
7:53 AM 34.0 °F - 33.1 °F 96% 30.12 in 10.0 mi Calm Calm - N/A   Clear
8:53 AM 44.1 °F 42.5 °F 35.1 °F 71% 30.16 in 10.0 mi NNE 3.5 mph - N/A   Clear
9:53 AM 48.0 °F - 36.0 °F 63% 30.17 in 10.0 mi ENE 4.6 mph - N/A   Clear
10:53 AM 53.1 °F - 36.0 °F 52% 30.18 in 10.0 mi Calm Calm - N/A   Clear
11:53 AM 55.9 °F - 34.0 °F 44% 30.18 in 10.0 mi North 6.9 mph - N/A   Clear
12:53 PM 59.0 °F - 34.0 °F 39% 30.17 in 10.0 mi WNW 5.8 mph - N/A   Clear
1:53 PM 62.1 °F - 33.1 °F 34% 30.15 in 10.0 mi NE 8.1 mph - N/A   Clear
2:53 PM 63.0 °F - 30.9 °F 30% 30.13 in 10.0 mi NNW 11.5 mph - N/A   Clear
3:53 PM 64.9 °F - 32.0 °F 29% 30.12 in 10.0 mi NNW 10.4 mph 16.1 mph N/A   Clear
4:53 PM 64.9 °F - 33.1 °F 31% 30.12 in 10.0 mi North 10.4 mph - N/A   Clear
5:53 PM 64.9 °F - 33.1 °F 31% 30.12 in 10.0 mi NW 5.8 mph - N/A   Clear
6:53 PM 62.1 °F - 34.0 °F 35% 30.14 in 10.0 mi North 5.8 mph - N/A   Clear
7:53 PM 55.0 °F - 37.9 °F 53% 30.17 in 10.0 mi Calm Calm - N/A   Clear
8:53 PM 48.9 °F - 39.9 °F 71% 30.19 in 10.0 mi Calm Calm - N/A   Clear
9:53 PM 48.0 °F - 37.9 °F 68% 30.21 in 10.0 mi Calm Calm - N/A   Clear
10:53 PM 46.0 °F - 37.0 °F 71% 30.23 in 10.0 mi Calm Calm - N/A   Clear
11:53 PM 46.0 °F 43.1 °F 36.0 °F 68% 30.24 in 10.0 mi NNW 5.8 mph - N/A   Clear